TimeMDT,TemperatureF,Dew PointF,Humidity,Sea Level PressureIn,VisibilityMPH,Wind Direction,Wind SpeedMPH,Gust SpeedMPH,PrecipitationIn,Events,Conditions,WindDirDegrees,DateUTC
12:15 AM,48.2,32.0,54,30.16,10.0,SE,3.5,-,N/A,,Clear,130,2013-04-01 06:15:00
12:35 AM,46.4,32.0,57,30.15,10.0,Calm,Calm,-,N/A,,Clear,0,2013-04-01 06:35:00
1:15 AM,46.4,30.2,53,30.15,10.0,SE,5.8,-,N/A,,Clear,130,2013-04-01 07:15:00
1:35 AM,46.4,30.2,53,30.15,10.0,Calm,Calm,-,N/A,,Clear,0,2013-04-01 07:35:00
1:55 AM,48.2,28.4,46,30.15,10.0,Calm,Calm,-,N/A,,Clear,0,2013-04-01 07:55:00
2:15 AM,46.4,24.8,43,30.15,10.0,South,3.5,-,N/A,,Clear,170,2013-04-01 08:15:00
2:35 AM,46.4,19.4,34,30.14,10.0,SW,9.2,-,N/A,,Clear,230,2013-04-01 08:35:00
3:15 AM,50.0,17.6,28,30.14,10.0,SW,10.4,-,N/A,,Clear,220,2013-04-01 09:15:00
3:35 AM,48.2,19.4,32,30.13,10.0,SW,9.2,-,N/A,,Clear,220,2013-04-01 09:35:00
4:15 AM,46.4,23.0,40,30.14,10.0,SW,4.6,-,N/A,,Clear,220,2013-04-01 10:15:00
4:35 AM,48.2,17.6,30,30.13,10.0,SW,9.2,-,N/A,,Clear,230,2013-04-01 10:35:00
4:55 AM,48.2,17.6,30,30.13,10.0,SW,10.4,-,N/A,,Clear,230,2013-04-01 10:55:00
5:15 AM,39.2,24.8,56,30.14,10.0,WNW,6.9,-,N/A,,Clear,300,2013-04-01 11:15:00
5:35 AM,42.8,19.4,39,30.14,10.0,NW,5.8,-,N/A,,Clear,320,2013-04-01 11:35:00
6:15 AM,41.0,24.8,53,30.15,10.0,Calm,Calm,-,N/A,,Clear,0,2013-04-01 12:15:00
6:35 AM,44.6,21.2,39,30.15,10.0,SW,3.5,-,N/A,,Clear,220,2013-04-01 12:35:00
7:15 AM,46.4,19.4,34,30.16,10.0,Calm,Calm,-,N/A,,Clear,0,2013-04-01 13:15:00
7:35 AM,48.2,17.6,30,30.16,10.0,WSW,3.5,-,N/A,,Clear,240,2013-04-01 13:35:00
7:55 AM,50.0,19.4,30,30.17,10.0,SW,4.6,-,N/A,,Clear,230,2013-04-01 13:55:00
8:15 AM,50.0,21.2,32,30.17,10.0,NNE,3.5,-,N/A,,Clear,30,2013-04-01 14:15:00
8:35 AM,50.0,19.4,30,30.17,10.0,SW,4.6,-,N/A,,Clear,230,2013-04-01 14:35:00
8:55 AM,57.2,19.4,23,30.17,10.0,SW,11.5,-,N/A,,Clear,220,2013-04-01 14:55:00
9:15 AM,59.0,19.4,22,30.17,10.0,SW,15.0,-,N/A,,Clear,220,2013-04-01 15:15:00
9:35 AM,59.0,19.4,22,30.17,10.0,SW,5.8,-,N/A,,Clear,230,2013-04-01 15:35:00
10:15 AM,62.6,19.4,19,30.17,10.0,SW,11.5,17.3,N/A,,Clear,230,2013-04-01 16:15:00
10:35 AM,64.4,15.8,15,30.16,10.0,WNW,10.4,19.6,N/A,,Clear,290,2013-04-01 16:35:00
11:15 AM,66.2,12.2,12,30.16,10.0,WSW,16.1,21.9,N/A,,Clear,240,2013-04-01 17:15:00
11:35 AM,66.2,8.6,11,30.16,10.0,SW,13.8,21.9,N/A,,Clear,230,2013-04-01 17:35:00
11:55 AM,66.2,8.6,11,30.15,10.0,SW,15.0,25.3,N/A,,Clear,220,2013-04-01 17:55:00
12:15 PM,66.2,10.4,11,30.15,10.0,WSW,12.7,23.0,N/A,,Clear,240,2013-04-01 18:15:00
12:35 PM,66.2,10.4,11,30.14,10.0,West,15.0,20.7,N/A,,Clear,260,2013-04-01 18:35:00
12:55 PM,68.0,8.6,10,30.13,10.0,SW,16.1,23.0,N/A,,Clear,220,2013-04-01 18:55:00
1:15 PM,68.0,14.0,12,30.12,10.0,SW,9.2,24.2,N/A,,Clear,220,2013-04-01 19:15:00
1:35 PM,68.0,14.0,12,30.11,10.0,SSW,20.7,27.6,N/A,,Clear,200,2013-04-01 19:35:00
2:15 PM,68.0,10.4,11,30.10,10.0,SW,21.9,28.8,N/A,,Clear,220,2013-04-01 20:15:00
2:35 PM,68.0,8.6,10,30.09,10.0,WSW,17.3,29.9,N/A,,Clear,250,2013-04-01 20:35:00
2:55 PM,68.0,6.8,9,30.07,10.0,SW,26.5,32.2,N/A,,Clear,230,2013-04-01 20:55:00
3:15 PM,68.0,6.8,9,30.07,10.0,WSW,20.7,25.3,N/A,,Clear,240,2013-04-01 21:15:00
3:35 PM,68.0,6.8,9,30.07,10.0,WSW,18.4,31.1,N/A,,Clear,250,2013-04-01 21:35:00
3:55 PM,68.0,6.8,9,30.07,10.0,SW,21.9,33.4,N/A,,Clear,230,2013-04-01 21:55:00
4:15 PM,68.0,8.6,10,30.06,10.0,SW,16.1,31.1,N/A,,Clear,220,2013-04-01 22:15:00
4:35 PM,68.0,8.6,10,30.05,10.0,SW,24.2,32.2,N/A,,Clear,220,2013-04-01 22:35:00
5:15 PM,68.0,10.4,11,30.04,10.0,SW,18.4,29.9,N/A,,Clear,230,2013-04-01 23:15:00
5:35 PM,66.2,6.8,10,30.03,10.0,SW,24.2,27.6,N/A,,Clear,230,2013-04-01 23:35:00
5:55 PM,66.2,8.6,11,30.04,10.0,SW,21.9,28.8,N/A,,Partly Cloudy,220,2013-04-01 23:55:00
6:15 PM,64.4,8.6,11,30.04,10.0,WSW,18.4,28.8,N/A,,Clear,240,2013-04-02 00:15:00
6:35 PM,64.4,10.4,12,30.04,10.0,SW,20.7,27.6,N/A,,Clear,230,2013-04-02 00:35:00
6:55 PM,62.6,8.6,12,30.04,10.0,SW,20.7,24.2,N/A,,Clear,220,2013-04-02 00:55:00
7:15 PM,62.6,8.6,12,30.04,10.0,SW,16.1,-,N/A,,Clear,230,2013-04-02 01:15:00
7:35 PM,59.0,8.6,14,30.05,10.0,SW,11.5,-,N/A,,Clear,220,2013-04-02 01:35:00
7:55 PM,59.0,8.6,14,30.05,10.0,SSW,12.7,-,N/A,,Clear,210,2013-04-02 01:55:00
8:15 PM,59.0,8.6,14,30.05,10.0,SSW,10.4,-,N/A,,Clear,210,2013-04-02 02:15:00
8:35 PM,57.2,8.6,14,30.05,10.0,SSW,11.5,-,N/A,,Clear,210,2013-04-02 02:35:00
8:55 PM,57.2,8.6,14,30.06,10.0,SSW,11.5,-,N/A,,Clear,210,2013-04-02 02:55:00
9:15 PM,55.4,8.6,15,30.06,10.0,SSW,11.5,-,N/A,,Clear,210,2013-04-02 03:15:00
9:35 PM,57.2,8.6,14,30.06,10.0,SW,12.7,-,N/A,,Clear,220,2013-04-02 03:35:00
9:55 PM,57.2,8.6,14,30.07,10.0,SW,10.4,-,N/A,,Clear,230,2013-04-02 03:55:00
10:15 PM,55.4,8.6,15,30.08,10.0,Calm,Calm,-,N/A,,Clear,0,2013-04-02 04:15:00
10:35 PM,51.8,8.6,18,30.07,10.0,SSE,5.8,-,N/A,,Clear,160,2013-04-02 04:35:00
10:55 PM,53.6,8.6,16,30.07,10.0,SSW,5.8,-,N/A,,Clear,210,2013-04-02 04:55:00
11:15 PM,51.8,8.6,18,30.07,10.0,ESE,3.5,-,N/A,,Clear,110,2013-04-02 05:15:00
11:35 PM,55.4,8.6,15,30.07,10.0,ESE,5.8,-,N/A,,Clear,120,2013-04-02 05:35:00
11:55 PM,51.8,8.6,18,30.06,10.0,SSE,4.6,-,N/A,,Clear,150,2013-04-02 05:55:00